Location: Kings Park
(40.8862°N, 73.2573°W)
Time: 09:03:05
(UTC+00:00)

Cosmos 1315 Rocket - Pass Details

Date: 29 October 2020
Orbit: 530 x 567 km, 81.2° (Epoch: 23 November)

Event Time Altitude Azimuth Distance (km) Brightness Sun altitude
Rises 22:26:06 0° 154° (SSE) 2,673 6.2 -7.0°
Reaches altitude 10° 22:28:40 10° 136° (SE) 1,794 5.1 -7.5°
Maximum altitude 22:31:32 20° 90° (E) 1,303 4.1 -8.0°
Drops below altitude 10° 22:34:27 10° 43° (NE) 1,820 5.0 -8.6°
Sets 22:37:04 0° 26° (NNE) 2,727 6.0 -9.1°
